User: anonymous   Login
Location: Unspecified
(0.0000°N, 0.0000°E)
Time: 12:12:20
(UTC+00:00)
Language:

IRS-P3 - Orbit

View from above orbital plane
View from above orbital plane
View from above satellite
View from above satellite

Ground track
Ground track

The orbit data is extracted from the following two-line orbital elements,

1 23827U 96017A   18289.95657761  .00000025  00000-0  30872-4 0  9990
2 23827  98.7703 229.1540 0004468  73.8698 286.2972 14.22563197171616
Epoch (UTC): 16 October 2018 22:57:28
Eccentricity: 0.0004468
inclination: 98.7703°
perigee height: 813 km
apogee height: 820 km
right ascension of ascending node: 229.1540°
argument of perigee: 73.8698°
revolutions per day: 14.22563197
mean anomaly at epoch: 286.2972°
orbit number at epoch: 17161

The dashed part of the orbit path shows where the satellite is in the earth's shadow,  

DLR